SKYSAT-C6

Last updated on Thu Nov 21 2024 00:02:27 GMT+0000 (Coordinated Universal Time)

1 42992U 17068F 24324.92184500 .00022028 00000+0 72203-3 0 9992 2 42992 97.3896 91.0639 0001994 193.3567 166.7622 15.31649089394434
UTC large
Height (km)
Speed (km/s)
/
Latitude / Longitude
Inclination (degrees)
Orbital Period (minutes)
Azimuth
Elevation
Range (km)
Doppler Factor

Next 0 passes for location: London (51.5072 / 0.1276)

Sorry there are no passes over London.